Webcam

Webcam Flugplatz Krefeld EDLK

Kurzinfo

ICAO-Code: EDLK
Höhe ü. NN: 141 ft / 43 m
Platzfrequenz: 120.675 MHz - Krefeld Info
Landebahn: 06 - 24
Abmessungen: 640 x 30m
Belag: Gras

Tankstelle: Nein
Betriebszeit: PPR

Landegebühr:                   5,00 €
Abstellgebühr je Tag:        5,00 €
Gewerbl. Landungen:     25,00 €

Flugzeugführer oder Flugzeughalter, die Mitglied
in einem der am Egelsberg ansässigen Verein sind,
werden von den o.g. Gebühren befreit.
Alle Preise sind Bruttopreise.

METAR / TAF Düsseldorf

[source: ADDS]
METAR
EDDL 170350Z 16006KT CAVOK 16/15 Q1017 NOSIG =
TAF
TAF EDDL 162300Z 1700/1806 VRB03KT 9999 FEW045 BECMG 1701/1704 17008KT TEMPO 1711/1716 20015G25KT RA =

Anflug

Folgende Informationen sind ohne Gewähr und ersetzen auf keinen Fall die Angaben in der AIP!